MSR1015 HEAT-OEJN

Flight info

Callsign MSR1015
Flight time N/A
Altitude 39000
Route ASPEK1A ASPEK DCT NABED A727 LXR M999 MUVOL
Aircraft A339/H-SADE1E2E3GHIJ3J5M1P2RWXY/LB2D1

Departure

Time 2026-04-29 13:50
Airport Asyut International Airport (HEAT)

Arrival

Time N/A
Airport King Abdulaziz International Airport (OEJN)
Time Latitude Longitude Altitude Speed Heading
2026-04-29 13:43 27.05039 31.01464 769 ft 0 kts 40°
2026-04-29 13:44 27.05032 31.01458 769 ft 2 kts 41°
2026-04-29 13:44 27.05018 31.01446 769 ft 3 kts 64°
2026-04-29 13:44 27.05011 31.01432 768 ft 3 kts 100°
2026-04-29 13:44 27.05014 31.01414 768 ft 3 kts 127°
2026-04-29 13:45 27.05026 31.01397 768 ft 2 kts 130°
2026-04-29 13:45 27.05029 31.01393 768 ft 0 kts 130°
2026-04-29 13:48 27.03798 31.02340 789 ft 0 kts 310°
2026-04-29 13:49 27.03936 31.02155 786 ft 75 kts 310°
2026-04-29 13:49 27.04462 31.01460 775 ft 154 kts 310°
2026-04-29 13:49 27.05281 31.00387 904 ft 197 kts 310°
2026-04-29 13:50 27.06131 30.99262 1894 ft 182 kts 311°
2026-04-29 13:50 27.07132 30.98500 2876 ft 179 kts 341°
2026-04-29 13:50 27.08405 30.98368 3434 ft 190 kts
2026-04-29 13:50 27.09782 30.98415 3833 ft 207 kts 359°
2026-04-29 13:51 27.11296 30.98537 4196 ft 231 kts 13°
2026-04-29 13:51 27.12774 30.99438 4582 ft 255 kts 37°
2026-04-29 13:51 27.14063 31.00904 4973 ft 271 kts 47°
2026-04-29 13:51 27.15244 31.02564 5661 ft 274 kts 49°
2026-04-29 13:52 27.16464 31.04219 6332 ft 276 kts 47°
2026-04-29 13:52 27.17308 31.05294 6765 ft 277 kts 46°
2026-04-29 13:52 27.19082 31.07427 7662 ft 281 kts 44°
2026-04-29 13:52 27.19984 31.08476 8088 ft 284 kts 43°
2026-04-29 13:53 27.21805 31.10610 8963 ft 287 kts 44°
2026-04-29 13:53 27.22709 31.11713 9359 ft 290 kts 47°
2026-04-29 13:53 27.23666 31.13736 9978 ft 299 kts 71°
2026-04-29 13:53 27.23763 31.16933 10473 ft 324 kts 101°
2026-04-29 13:54 27.23303 31.18571 10610 ft 338 kts 110°
2026-04-29 13:54 27.22322 31.21050 10809 ft 357 kts 114°
2026-04-29 13:54 27.21275 31.23615 11311 ft 362 kts 113°
2026-04-29 13:54 27.20293 31.26233 11928 ft 364 kts 111°
2026-04-29 13:55 27.19369 31.28909 12487 ft 369 kts 109°
2026-04-29 13:55 27.18479 31.31627 13047 ft 373 kts 109°
2026-04-29 13:55 27.17594 31.34390 13548 ft 379 kts 108°
2026-04-29 13:55 27.16703 31.37197 14058 ft 384 kts 109°
2026-04-29 13:56 27.15794 31.40040 14573 ft 389 kts 109°
2026-04-29 13:56 27.14870 31.42915 15063 ft 394 kts 109°
2026-04-29 13:56 27.13945 31.45826 15531 ft 398 kts 107°
2026-04-29 13:56 27.13460 31.48850 15968 ft 400 kts 90°
2026-04-29 13:57 27.13691 31.51956 16465 ft 398 kts 74°
2026-04-29 13:57 27.14392 31.54972 16860 ft 402 kts 71°
2026-04-29 13:57 27.15097 31.58030 17359 ft 405 kts 72°
2026-04-29 13:57 27.15780 31.61114 17792 ft 410 kts 72°
2026-04-29 13:58 27.16458 31.64261 18229 ft 415 kts 72°
2026-04-29 13:58 27.17132 31.67421 18730 ft 417 kts 72°
2026-04-29 13:58 27.17810 31.70605 19153 ft 422 kts 72°
2026-04-29 13:58 27.18497 31.73829 19584 ft 426 kts 72°
2026-04-29 13:59 27.19190 31.77085 20005 ft 431 kts 72°
2026-04-29 13:59 27.19887 31.80367 20488 ft 433 kts 72°
2026-04-29 13:59 27.20594 31.83681 20886 ft 438 kts 72°
2026-04-29 13:59 27.21306 31.87030 21370 ft 441 kts 72°
2026-04-29 14:00 27.22022 31.90401 21737 ft 447 kts 72°
2026-04-29 14:00 27.22735 31.93776 22152 ft 451 kts 72°
2026-04-29 14:00 27.23462 31.97219 22558 ft 455 kts 73°
2026-04-29 14:00 27.24194 32.00692 22947 ft 459 kts 73°
2026-04-29 14:01 27.24936 32.04208 23327 ft 464 kts 73°
2026-04-29 14:01 27.25686 32.07758 23747 ft 468 kts 73°
2026-04-29 14:01 27.26437 32.11332 24136 ft 472 kts 73°
2026-04-29 14:01 27.27193 32.14938 24535 ft 476 kts 73°
2026-04-29 14:02 27.27733 32.18629 24946 ft 483 kts 84°
2026-04-29 14:02 27.27605 32.22417 25403 ft 488 kts 97°
2026-04-29 14:02 27.26791 32.26141 25846 ft 492 kts 110°
2026-04-29 14:02 27.25327 32.29618 26247 ft 494 kts 123°
2026-04-29 14:03 27.23282 32.32692 26657 ft 492 kts 136°
2026-04-29 14:03 27.20739 32.35243 27057 ft 487 kts 149°
2026-04-29 14:03 27.17834 32.37147 27404 ft 482 kts 161°
2026-04-29 14:03 27.14682 32.38353 27725 ft 475 kts 174°
2026-04-29 14:04 27.11480 32.38801 28124 ft 465 kts 186°
2026-04-29 14:04 27.08296 32.38521 28487 ft 455 kts 197°
2026-04-29 14:04 27.05135 32.37998 28746 ft 464 kts 193°
2026-04-29 14:04 27.01864 32.37968 29106 ft 476 kts 183°
2026-04-29 14:05 26.98557 32.38486 29471 ft 485 kts 175°
2026-04-29 14:05 26.95244 32.39347 29762 ft 492 kts 172°
2026-04-29 14:05 26.91933 32.40372 30100 ft 495 kts 170°
2026-04-29 14:05 26.88612 32.41450 30470 ft 497 kts 170°
2026-04-29 14:06 26.85294 32.42529 30881 ft 498 kts 171°
2026-04-29 14:06 26.81966 32.43598 31276 ft 498 kts 171°
2026-04-29 14:06 26.78619 32.44658 31649 ft 499 kts 171°
2026-04-29 14:06 26.75271 32.45712 31994 ft 501 kts 172°
2026-04-29 14:07 26.71916 32.46763 32328 ft 502 kts 172°
2026-04-29 14:07 26.68542 32.47821 32647 ft 503 kts 172°
2026-04-29 14:07 26.65206 32.48865 32934 ft 504 kts 172°
2026-04-29 14:07 26.61826 32.49929 33183 ft 504 kts 172°
2026-04-29 14:08 26.58446 32.50994 33381 ft 505 kts 172°
2026-04-29 14:08 26.55057 32.52049 33602 ft 505 kts 172°
2026-04-29 14:08 26.51678 32.53104 33905 ft 503 kts 173°
2026-04-29 14:08 26.48297 32.54156 34154 ft 502 kts 173°
2026-04-29 14:09 26.44935 32.55202 34384 ft 502 kts 173°
2026-04-29 14:09 26.41575 32.56248 34549 ft 502 kts 173°
2026-04-29 14:09 26.38202 32.57294 34738 ft 502 kts 173°
2026-04-29 14:09 26.34840 32.58341 34966 ft 501 kts 173°
2026-04-29 14:10 26.31480 32.59385 35127 ft 501 kts 174°
2026-04-29 14:10 26.28115 32.60437 35272 ft 502 kts 174°
2026-04-29 14:10 26.24760 32.61480 35477 ft 501 kts 174°
2026-04-29 14:10 26.21403 32.62521 35662 ft 501 kts 174°
2026-04-29 14:11 26.18044 32.63560 35835 ft 501 kts 174°
2026-04-29 14:11 26.14734 32.64593 36090 ft 499 kts 174°
2026-04-29 14:11 26.11385 32.65631 36258 ft 499 kts 174°
2026-04-29 14:11 26.08032 32.66663 36402 ft 499 kts 175°
2026-04-29 14:12 26.04677 32.67698 36534 ft 500 kts 174°
2026-04-29 14:12 26.01317 32.68733 36682 ft 503 kts 175°
2026-04-29 14:12 25.97964 32.69769 37057 ft 496 kts 175°
2026-04-29 14:12 25.94668 32.70798 37525 ft 489 kts 175°
2026-04-29 14:13 25.91394 32.71810 37702 ft 488 kts 176°
2026-04-29 14:13 25.88123 32.72814 37839 ft 489 kts 176°
2026-04-29 14:13 25.84844 32.73821 37965 ft 489 kts 176°
2026-04-29 14:13 25.81569 32.74841 38112 ft 492 kts 174°
2026-04-29 14:14 25.78340 32.76278 38213 ft 510 kts 163°
2026-04-29 14:14 25.75288 32.78408 38357 ft 527 kts 152°
2026-04-29 14:14 25.72534 32.81171 38478 ft 542 kts 141°
2026-04-29 14:14 25.70209 32.84455 38593 ft 554 kts 130°
2026-04-29 14:15 25.68119 32.88055 38703 ft 556 kts 129°
2026-04-29 14:15 25.66048 32.91676 38833 ft 556 kts 129°
2026-04-29 14:15 25.61840 32.98867 38903 ft 555 kts 130°
2026-04-29 14:16 25.57584 33.05994 38916 ft 554 kts 131°
2026-04-29 14:16 25.53312 33.13099 38935 ft 553 kts 130°
2026-04-29 14:17 25.49060 33.20183 38933 ft 551 kts 131°
2026-04-29 14:17 25.44809 33.27259 38908 ft 553 kts 131°
2026-04-29 14:18 25.40526 33.34351 38912 ft 554 kts 131°
2026-04-29 14:18 25.36275 33.41387 38913 ft 552 kts 131°
2026-04-29 14:19 25.32011 33.48439 38935 ft 551 kts 131°
2026-04-29 14:19 25.27753 33.55478 38932 ft 550 kts 131°
2026-04-29 14:20 25.23491 33.62509 38910 ft 550 kts 131°
2026-04-29 14:20 25.19242 33.69524 38902 ft 549 kts 131°
2026-04-29 14:21 25.14987 33.76523 38903 ft 547 kts 131°
2026-04-29 14:21 25.10755 33.83490 38907 ft 546 kts 131°
2026-04-29 14:22 25.06550 33.90398 38895 ft 545 kts 131°
2026-04-29 14:22 25.02309 33.97337 38901 ft 544 kts 131°
2026-04-29 14:23 24.98083 34.04257 38917 ft 543 kts 131°
2026-04-29 14:23 24.93861 34.11155 38911 ft 542 kts 131°
2026-04-29 14:24 24.89651 34.18032 38909 ft 541 kts 131°
2026-04-29 14:24 24.85442 34.24901 38909 ft 540 kts 131°
2026-04-29 14:25 24.81234 34.31750 38907 ft 539 kts 131°
2026-04-29 14:25 24.77055 34.38537 38905 ft 539 kts 131°
2026-04-29 14:26 24.72841 34.45364 38912 ft 538 kts 131°
2026-04-29 14:26 24.68640 34.52181 38897 ft 538 kts 131°
2026-04-29 14:27 24.64434 34.58993 38897 ft 538 kts 131°
2026-04-29 14:28 24.58120 34.69191 38895 ft 537 kts 131°
2026-04-29 14:28 24.53909 34.75976 38898 ft 537 kts 131°
2026-04-29 14:29 24.49702 34.82759 38897 ft 537 kts 131°
2026-04-29 14:29 24.45526 34.89482 38906 ft 536 kts 131°
2026-04-29 14:30 24.41322 34.96245 38896 ft 535 kts 131°
2026-04-29 14:30 24.37114 35.02985 38887 ft 535 kts 131°
2026-04-29 14:31 24.32900 35.09729 38893 ft 536 kts 131°
2026-04-29 14:31 24.28708 35.16433 38894 ft 535 kts 131°
2026-04-29 14:32 24.24500 35.23161 38893 ft 535 kts 131°
2026-04-29 14:32 24.20281 35.29892 38895 ft 535 kts 131°
2026-04-29 14:33 24.16061 35.36617 38897 ft 535 kts 131°
2026-04-29 14:33 24.11850 35.43308 38912 ft 534 kts 131°
2026-04-29 14:34 24.07637 35.50005 38904 ft 533 kts 131°
2026-04-29 14:34 24.03451 35.56646 38906 ft 533 kts 131°
2026-04-29 14:35 23.99238 35.63327 38911 ft 532 kts 131°
2026-04-29 14:35 23.95023 35.69997 38912 ft 532 kts 131°
2026-04-29 14:36 23.90833 35.76601 38883 ft 532 kts 131°
2026-04-29 14:36 23.86622 35.83247 38873 ft 532 kts 132°
2026-04-29 14:37 23.82410 35.89882 38868 ft 531 kts 132°
2026-04-29 14:37 23.78190 35.96515 38858 ft 531 kts 132°
2026-04-29 14:38 23.73969 36.03131 38860 ft 531 kts 131°
2026-04-29 14:38 23.69751 36.09756 38860 ft 531 kts 132°
2026-04-29 14:39 23.65527 36.16367 38856 ft 530 kts 131°
2026-04-29 14:39 23.61338 36.22924 38852 ft 530 kts 131°
2026-04-29 14:40 23.57124 36.29508 38858 ft 529 kts 131°
2026-04-29 14:40 23.53597 36.35011 38857 ft 528 kts 131°
2026-04-29 14:41 23.49411 36.41531 38859 ft 527 kts 131°
2026-04-29 14:41 23.45196 36.48088 38851 ft 526 kts 131°
2026-04-29 14:42 23.41030 36.54568 38847 ft 525 kts 131°
2026-04-29 14:42 23.36829 36.61083 38839 ft 525 kts 131°
2026-04-29 14:43 23.32647 36.67575 38833 ft 521 kts 131°
2026-04-29 14:43 23.28473 36.74040 38831 ft 521 kts 131°
2026-04-29 14:44 23.24328 36.80444 38832 ft 520 kts 131°
2026-04-29 14:44 23.20155 36.86893 38831 ft 520 kts 131°
2026-04-29 14:45 23.16013 36.93283 38834 ft 519 kts 131°
2026-04-29 14:45 23.11856 36.99689 38836 ft 518 kts 131°
2026-04-29 14:46 23.07697 37.06090 38835 ft 518 kts 131°
2026-04-29 14:46 23.03541 37.12470 38835 ft 517 kts 131°
2026-04-29 14:47 22.99376 37.18856 38835 ft 516 kts 131°
2026-04-29 14:47 22.95235 37.25171 38835 ft 516 kts 131°
2026-04-29 14:48 22.91072 37.31516 38832 ft 515 kts 131°
2026-04-29 14:48 22.86921 37.37838 38834 ft 514 kts 131°
2026-04-29 14:49 22.82794 37.44128 38838 ft 513 kts 131°
2026-04-29 14:49 22.78647 37.50423 38835 ft 512 kts 131°
2026-04-29 14:50 22.74504 37.56706 38834 ft 512 kts 131°
2026-04-29 14:50 22.70383 37.62958 38833 ft 511 kts 131°
2026-04-29 14:51 22.66250 37.69254 38832 ft 511 kts 130°
2026-04-29 14:51 22.62157 37.75508 38759 ft 510 kts 130°
2026-04-29 14:51 22.60096 37.78645 38355 ft 509 kts 130°
2026-04-29 14:52 22.58058 37.81746 37668 ft 511 kts 130°
2026-04-29 14:52 22.55989 37.84888 36773 ft 514 kts 131°
2026-04-29 14:52 22.53903 37.88053 35635 ft 519 kts 131°
2026-04-29 14:52 22.51781 37.91280 34165 ft 529 kts 131°
2026-04-29 14:53 22.49612 37.94573 32515 ft 539 kts 131°
2026-04-29 14:53 22.47452 37.97853 30687 ft 543 kts 131°
2026-04-29 14:53 22.45262 38.01179 29103 ft 541 kts 131°
2026-04-29 14:53 22.43081 38.04484 27802 ft 534 kts 130°
2026-04-29 14:54 22.40933 38.07734 26785 ft 525 kts 129°
2026-04-29 14:54 22.38857 38.10878 26055 ft 511 kts 128°
2026-04-29 14:54 22.36829 38.13951 25601 ft 492 kts 128°